Find Starlink 1413

NORAD ID: 45689 Int'l Des: 2020-035 Owner: SPXS Country: US Constellation: starlink operational
LEOCIRCULAR

Live Position

Loading 3D Globe...

About Starlink 1413

Description loading...

Upcoming Passes

Passes for default location (London). Set your location on the main map for personalized predictions.

Altitude History

Loading altitude history...

Two-Line Element Set

1 45689U 20035AJ 26106.64820388 .00033638 00000-0 11213-2 0 9999
2 45689 53.1584 233.2443 0001484 45.5500 314.5622 15.30811642324707
Epoch: Apr 16, 2026 • Age: 9 hours

Current Status

Altitude 492.4 km
Velocity 7.62 km/s
Sub-Earth Point -52.99°S, 63.71°W
Launch Date Jun 4, 2020
Age 5.8 years
Type internet

Technical Details

Classification Payload
Mass 260.00 kg
Dry Mass 248.00 kg
Total Mass 260.00 kg
Length 0.20 m
Diameter 2.80 m
Span 9.00 m
Shape Box + pan
Manufacturer SPXS
Bus Type Starlink
Phase Status In Orbit
Owner/State SPXS/US

Most Searched